KC5TIL Weather Reports


Display with metric or nautical units.
time (UTC)temp
F
wind
direction
speed
MPH
gust
MPH
rain 1hr
in
rain 24hr
in
rain mn
in
humidity
%
barometer
mb
20260903165615 88 176 4.0 6.0 0.00 0.00 0.00 69 1014.6
20260903165110 88 103 1.0 6.0 0.00 0.00 0.00 70 1014.5
20260903164605 87 123 1.0 3.0 0.00 0.00 0.00 72 1014.5
20260903164100 87 143 3.0 5.0 0.00 0.00 0.00 72 1014.2
20260903163555 87 90 3.0 6.0 0.00 0.00 0.00 71 1014.7
20260903163051 86 137 2.0 5.0 0.00 0.00 0.00 73 1014.7
20260903162547 86 192 2.0 5.0 0.00 0.00 0.00 74 1014.6
20260903162043 86 147 3.0 9.0 0.00 0.00 0.00 75 1014.7
20260903161538 86 139 1.0 3.0 0.00 0.00 0.00 74 1014.6
20260903161034 86 98 3.0 6.0 0.00 0.00 0.00 73 1014.5
20260903160533 86 239 2.0 5.0 0.00 0.00 0.00 75 1014.6
20260903160028 86 147 2.0 2.0 0.00 0.00 0.00 76 1014.6
20260903155526 85 111 3.0 5.0 0.00 0.00 0.00 76 1014.9
20260903155022 85 136 3.0 9.0 0.00 0.00 0.00 76 1014.7
20260903154518 84 108 3.0 5.0 0.00 0.00 0.00 76 1014.6
20260903154014 85 91 3.0 3.0 0.00 0.00 0.00 76 1014.7
20260903153509 84 80 3.0 3.0 0.00 0.00 0.00 76 1014.6
20260903153005 84 105 1.0 2.0 0.00 0.00 0.00 76 1014.6
20260903152500 84 168 1.0 5.0 0.00 0.00 0.00 77 1014.7
20260903151957 84 124 2.0 3.0 0.00 0.00 0.00 77 1014.6
20260903151450 83 121 1.0 3.0 0.00 0.00 0.00 78 1014.6
20260903150946 83 124 1.0 5.0 0.00 0.00 0.00 78 1014.8
20260903150439 83 111 2.0 2.0 0.00 0.00 0.00 80 1014.7
20260903145934 82 136 2.0 3.0 0.00 0.00 0.00 80 1014.9
20260903145430 82 193 3.0 3.0 0.00 0.00 0.00 80 1014.8
20260903144924 82 163 3.0 6.0 0.00 0.00 0.00 81 1015.0
20260903144424 82 126 2.0 3.0 0.00 0.00 0.00 81 1014.9
20260903143920 82 141 1.0 3.0 0.00 0.00 0.00 80 1014.9
20260903143416 82 159 2.0 5.0 0.00 0.00 0.00 81 1014.9
20260903142911 82 153 2.0 2.0 0.00 0.00 0.00 81 1014.9
20260903142407 82 104 1.0 2.0 0.00 0.00 0.00 80 1014.7
20260903141902 81 129 1.0 1.0 0.00 0.00 0.00 81 1014.8
20260903141353 81 124 1.0 3.0 0.00 0.00 0.00 81 1014.8
20260903140848 81 132 1.0 2.0 0.00 0.00 0.00 82 1014.8
20260903140343 80 101 1.0 2.0 0.00 0.00 0.00 82 1014.8
20260903135838 80 126 0.0 1.0 0.00 0.00 0.00 83 1014.8
20260903135333 80 133 1.0 2.0 0.00 0.00 0.00 83 1014.9
20260903134832 80 122 1.0 2.0 0.00 0.00 0.00 83 1014.8
20260903134327 80 139 2.0 3.0 0.00 0.00 0.00 83 1014.7
20260903133826 79 155 1.0 5.0 0.00 0.00 0.00 83 1014.9
20260903133322 79 127 2.0 3.0 0.00 0.00 0.00 83 1014.7
20260903132821 79 132 1.0 3.0 0.00 0.00 0.00 83 1014.5
20260903132313 79 136 1.0 1.0 0.00 0.00 0.00 84 1014.5
20260903131807 79 141 1.0 2.0 0.00 0.00 0.00 84 1014.5
20260903131307 79 128 2.0 2.0 0.00 0.00 0.00 84 1014.5
20260903130801 79 124 1.0 2.0 0.00 0.00 0.00 85 1014.6
20260903130256 78 144 1.0 3.0 0.00 0.00 0.00 85 1014.8
20260903125754 78 109 1.0 1.0 0.00 0.00 0.00 85 1014.6
20260903125250 78 163 1.0 3.0 0.00 0.00 0.00 85 1014.6
20260903124749 78 127 0.0 1.0 0.00 0.00 0.00 85 1014.8
20260903124245 78 113 1.0 1.0 0.00 0.00 0.00 85 1014.7
20260903123743 78 135 0.0 1.0 0.00 0.00 0.00 85 1014.6
20260903123242 78 130 1.0 1.0 0.00 0.00 0.00 85 1014.5
20260903122741 78 119 1.0 2.0 0.00 0.00 0.00 85 1014.4
20260903122236 78 128 1.0 1.0 0.00 0.00 0.00 85 1014.4
20260903121734 78 160 1.0 2.0 0.00 0.00 0.00 85 1014.5
20260903121231 78 109 1.0 2.0 0.00 0.00 0.00 85 1014.4
20260903120731 78 160 1.0 2.0 0.00 0.00 0.00 84 1014.4
20260903120224 78 149 1.0 2.0 0.00 0.00 0.00 84 1014.3
20260903115723 78 122 0.0 1.0 0.00 0.00 0.00 84 1014.4
20260903115218 78 169 1.0 2.0 0.00 0.00 0.00 84 1014.5
20260903114712 78 139 0.0 1.0 0.00 0.00 0.00 84 1014.6
20260903114208 78 129 0.0 1.0 0.00 0.00 0.00 84 1014.5
20260903113703 78 130 0.0 2.0 0.00 0.00 0.00 84 1014.4
20260903113159 78 130 1.0 1.0 0.00 0.00 0.00 83 1014.3
20260903112655 78 135 2.0 2.0 0.00 0.00 0.00 83 1014.4
20260903112150 78 142 2.0 2.0 0.00 0.00 0.00 83 1014.2
20260903111649 78 146 1.0 7.0 0.00 0.00 0.00 82 1014.3
20260903111145 78 128 1.0 5.0 0.00 0.00 0.00 82 1014.4
20260903110641 78 134 1.0 2.0 0.00 0.00 0.00 83 1014.3
20260903110137 78 129 1.0 2.0 0.00 0.00 0.00 83 1014.2
20260903105630 79 128 0.0 1.0 0.00 0.00 0.00 83 1014.3
20260903105120 78 131 1.0 2.0 0.00 0.00 0.00 82 1014.3
20260903104620 78 131 0.0 1.0 0.00 0.00 0.00 82 1014.0
20260903104116 79 136 1.0 2.0 0.00 0.00 0.00 82 1014.0
20260903103611 78 152 0.0 1.0 0.00 0.00 0.00 82 1014.2
20260903103107 78 132 1.0 1.0 0.00 0.00 0.00 82 1014.0
20260903102602 78 133 0.0 1.0 0.00 0.00 0.00 83 1014.0
20260903102101 79 129 0.0 2.0 0.00 0.00 0.00 82 1014.0
20260903101555 78 131 1.0 2.0 0.00 0.00 0.00 82 1014.1
20260903101046 78 154 1.0 2.0 0.00 0.00 0.00 82 1014.2
20260903100546 78 132 0.0 1.0 0.00 0.00 0.00 83 1014.1
20260903100044 78 122 1.0 2.0 0.00 0.00 0.00 82 1014.2
20260903095542 78 128 1.0 1.0 0.00 0.00 0.00 82 1014.2
20260903095037 78 140 1.0 1.0 0.00 0.00 0.00 82 1014.0
20260903094537 78 140 0.0 1.0 0.00 0.00 0.00 82 1014.3
20260903094033 78 126 0.0 1.0 0.00 0.00 0.00 82 1014.1
20260903093533 78 120 0.0 1.0 0.00 0.00 0.00 82 1014.0
20260903093029 78 121 1.0 1.0 0.00 0.00 0.00 82 1014.2
20260903092528 78 136 1.0 2.0 0.00 0.00 0.00 82 1014.1
20260903092022 78 123 0.0 0.0 0.00 0.00 0.00 81 1014.1
20260903091520 78 124 0.0 1.0 0.00 0.00 0.00 81 1013.9
20260903091015 78 111 0.0 1.0 0.00 0.00 0.00 81 1014.0
20260903090512 78 123 0.0 0.0 0.00 0.00 0.00 80 1014.0
20260903090010 78 124 0.0 0.0 0.00 0.00 0.00 80 1014.0
20260903085508 78 122 0.0 0.0 0.00 0.00 0.00 80 1014.2
20260903085004 78 129 0.0 0.0 0.00 0.00 0.00 80 1014.1
20260903084503 78 103 0.0 1.0 0.00 0.00 0.00 79 1014.2
20260903083957 78 118 0.0 0.0 0.00 0.00 0.00 80 1014.0
20260903083453 78 118 0.0 0.0 0.00 0.00 0.00 79 1014.0
20260903082953 78 89 0.0 1.0 0.00 0.00 0.00 79 1014.2
20260903082447 79 104 0.0 1.0 0.00 0.00 0.00 79 1014.2
20260903081942 78 131 0.0 1.0 0.00 0.00 0.00 79 1014.2
20260903081438 79 123 0.0 0.0 0.00 0.00 0.00 78 1014.2
20260903080934 79 137 0.0 1.0 0.00 0.00 0.00 78 1014.1
20260903080430 79 134 0.0 1.0 0.00 0.00 0.00 78 1014.2
20260903075925 79 108 0.0 1.0 0.00 0.00 0.00 78 1014.1
20260903075421 79 125 0.0 0.0 0.00 0.00 0.00 78 1013.9
20260903074921 79 115 0.0 0.0 0.00 0.00 0.00 77 1014.1
20260903074415 79 127 0.0 0.0 0.00 0.00 0.00 77 1014.2
20260903073911 79 128 0.0 0.0 0.00 0.00 0.00 77 1014.3
20260903073405 80 126 0.0 1.0 0.00 0.00 0.00 77 1014.3
20260903072901 79 126 1.0 2.0 0.00 0.00 0.00 77 1014.5
20260903072357 79 120 0.0 2.0 0.00 0.00 0.00 77 1014.3
20260903071853 80 124 1.0 1.0 0.00 0.00 0.00 76 1014.2
20260903071349 80 114 0.0 1.0 0.00 0.00 0.00 76 1014.3
20260903070844 80 123 0.0 1.0 0.00 0.00 0.00 75 1014.3
20260903070334 80 110 1.0 2.0 0.00 0.00 0.00 75 1014.3
20260903065828 80 129 0.0 0.0 0.00 0.00 0.00 75 1014.2
20260903065327 80 133 0.0 1.0 0.00 0.00 0.00 75 1014.3
20260903064826 80 161 0.0 0.0 0.00 0.00 0.00 74 1014.2
20260903064316 81 131 0.0 2.0 0.00 0.00 0.00 74 1014.4
20260903063812 81 124 0.0 2.0 0.00 0.00 0.00 74 1014.5
20260903063307 81 131 1.0 2.0 0.00 0.00 0.00 74 1014.4
20260903062757 81 138 2.0 2.0 0.00 0.00 0.00 74 1014.6
20260903062256 81 139 0.0 2.0 0.00 0.00 0.00 73 1014.5
20260903061753 81 165 2.0 3.0 0.00 0.00 0.00 73 1014.8
20260903061251 82 115 1.0 5.0 0.00 0.00 0.00 73 1014.7
20260903060747 82 123 0.0 2.0 0.00 0.00 0.00 72 1014.7
20260903060241 82 131 1.0 2.0 0.00 0.00 0.00 73 1014.7
20260903055738 82 137 2.0 5.0 0.00 0.00 0.00 72 1014.6
20260903055237 82 163 2.0 3.0 0.00 0.00 0.00 72 1014.7
20260903054732 82 143 1.0 2.0 0.00 0.00 0.00 72 1014.8
20260903054227 83 139 3.0 3.0 0.00 0.00 0.00 71 1015.1
20260903053724 83 124 1.0 2.0 0.00 0.00 0.00 71 1014.9
20260903053224 83 133 2.0 3.0 0.00 0.00 0.00 71 1014.8
20260903052720 83 138 2.0 2.0 0.00 0.00 0.00 70 1014.7
20260903052215 83 140 1.0 3.0 0.00 0.00 0.00 71 1014.7
20260903051710 83 159 1.0 2.0 0.00 0.00 0.00 71 1014.6
20260903051206 84 100 1.0 5.0 0.00 0.00 0.00 71 1014.5
20260903050701 84 100 1.0 3.0 0.00 0.00 0.00 70 1014.7
20260903050200 84 132 1.0 3.0 0.00 0.00 0.00 70 1014.7
20260903045655 84 146 3.0 3.0 0.00 0.00 0.00 69 1014.7
20260903045152 84 145 1.0 2.0 0.00 0.00 0.00 69 1014.4
20260903044648 84 110 1.0 3.0 0.00 0.00 0.00 69 1014.6
20260903044143 84 121 0.0 3.0 0.00 0.00 0.00 69 1014.8
20260903043640 84 111 1.0 3.0 0.00 0.00 0.00 68 1014.6
20260903043138 85 116 0.0 1.0 0.00 0.00 0.00 69 1014.6
20260903042638 85 134 1.0 2.0 0.00 0.00 0.00 68 1014.4
20260903042133 85 162 0.0 1.0 0.00 0.00 0.00 69 1014.7
20260903041630 85 145 1.0 2.0 0.00 0.00 0.00 68 1014.5
20260903041126 86 169 1.0 2.0 0.00 0.00 0.00 68 1014.5
20260903040624 86 186 2.0 3.0 0.00 0.00 0.00 67 1014.5
20260903040121 86 102 0.0 2.0 0.00 0.00 0.00 68 1014.6
20260903035616 86 174 2.0 3.0 0.00 0.00 0.00 67 1014.6
20260903035112 86 104 2.0 3.0 0.00 0.00 0.00 66 1014.5
20260903034606 86 148 2.0 6.0 0.00 0.00 0.00 65 1014.5
20260903034101 87 121 2.0 3.0 0.00 0.00 0.00 65 1014.6
20260903033557 87 134 2.0 3.0 0.00 0.00 0.00 65 1014.4
20260903033052 87 131 0.0 3.0 0.00 0.00 0.00 65 1014.4
20260903032547 87 136 1.0 2.0 0.00 0.00 0.00 65 1014.4
20260903032042 87 143 1.0 3.0 0.00 0.00 0.00 64 1014.5
20260903031542 87 81 4.0 6.0 0.00 0.00 0.00 64 1014.4
20260903031037 87 123 3.0 3.0 0.00 0.00 0.00 63 1014.3
20260903030532 87 86 0.0 2.0 0.00 0.00 0.00 64 1014.4
20260903030029 88 133 1.0 6.0 0.00 0.00 0.00 62 1014.2
20260903025524 88 137 1.0 3.0 0.00 0.00 0.00 64 1014.1
20260903025020 88 141 3.0 6.0 0.00 0.00 0.00 60 1014.1
20260903024519 88 150 1.0 2.0 0.00 0.00 0.00 62 1013.7
20260903024013 88 141 2.0 2.0 0.00 0.00 0.00 61 1013.7
20260903023509 89 172 2.0 8.0 0.00 0.00 0.00 60 1013.7
20260903023004 89 175 2.0 3.0 0.00 0.00 0.00 59 1013.8
20260903022504 89 158 2.0 3.0 0.00 0.00 0.00 60 1013.6
20260903022001 89 155 1.0 3.0 0.00 0.00 0.00 59 1013.5
20260903021457 90 116 1.0 7.0 0.00 0.00 0.00 58 1013.5
20260903020952 90 162 3.0 6.0 0.00 0.00 0.00 58 1013.3
20260903020448 90 109 1.0 3.0 0.00 0.00 0.00 59 1013.4
20260903015942 90 100 3.0 6.0 0.00 0.00 0.00 58 1013.3
20260903015438 90 137 1.0 5.0 0.00 0.00 0.00 58 1013.0
20260903014933 91 137 2.0 2.0 0.00 0.00 0.00 60 1013.0
20260903014432 91 102 2.0 3.0 0.00 0.00 0.00 60 1013.0
20260903013927 91 206 4.0 9.0 0.00 0.00 0.00 57 1012.9
20260903013427 91 150 5.0 7.0 0.00 0.00 0.00 57 1012.8
20260903012921 91 134 3.0 5.0 0.00 0.00 0.00 58 1012.6
20260903012420 91 131 2.0 5.0 0.00 0.00 0.00 56 1012.6
20260903011919 92 161 2.0 6.0 0.00 0.00 0.00 56 1012.7
20260903011415 92 116 3.0 7.0 0.00 0.00 0.00 54 1012.5
20260903010909 93 152 1.0 5.0 0.00 0.00 0.00 55 1012.5
20260903010405 93 135 1.0 3.0 0.00 0.00 0.00 53 1012.3
20260903005902 93 131 2.0 5.0 0.00 0.00 0.00 51 1012.3
20260903005358 93 90 3.0 6.0 0.00 0.00 0.00 53 1012.3
20260903004855 93 175 2.0 5.0 0.00 0.00 0.00 52 1012.2
20260903004350 93 114 3.0 7.0 0.00 0.00 0.00 53 1012.3
20260903003844 93 79 3.0 6.0 0.00 0.00 0.00 51 1012.3
20260903003339 93 153 2.0 6.0 0.00 0.00 0.00 57 1012.3
20260903002839 93 99 2.0 6.0 0.00 0.00 0.00 56 1012.2
20260903002333 94 85 2.0 7.0 0.00 0.00 0.00 53 1012.1
20260903001828 94 80 4.0 7.0 0.00 0.00 0.00 56 1012.0
20260903001324 95 90 3.0 7.0 0.00 0.00 0.00 53 1011.9
20260903000824 96 117 2.0 2.0 0.00 0.00 0.00 52 1012.0
20260903000319 96 100 1.0 2.0 0.00 0.00 0.00 51 1012.1
20260902235816 96 89 2.0 2.0 0.00 0.00 0.00 51 1011.9
20260902235312 96 91 3.0 8.0 0.00 0.00 0.00 46 1011.8
20260902234811 97 125 0.0 2.0 0.00 0.00 0.00 48 1011.8
20260902234306 97 100 1.0 2.0 0.00 0.00 0.00 47 1011.9
20260902233805 97 138 1.0 3.0 0.00 0.00 0.00 46 1012.0
20260902233304 96 122 1.0 3.0 0.00 0.00 0.00 49 1011.9
20260902232803 97 107 2.0 6.0 0.00 0.00 0.00 48 1011.9
20260902232258 97 117 1.0 2.0 0.00 0.00 0.00 45 1011.7
20260902231757 98 80 2.0 6.0 0.00 0.00 0.00 44 1011.8
20260902231252 98 38 4.0 6.0 0.00 0.00 0.00 41 1011.8
20260902230747 98 119 0.0 3.0 0.00 0.00 0.00 43 1011.9
20260902230246 98 51 3.0 6.0 0.00 0.00 0.00 42 1011.9
20260902225741 98 27 3.0 5.0 0.00 0.00 0.00 42 1011.9
20260902225236 98 59 2.0 6.0 0.00 0.00 0.00 43 1011.8
20260902224734 98 102 0.0 2.0 0.00 0.00 0.00 43 1011.9
20260902224230 99 91 2.0 5.0 0.00 0.00 0.00 42 1011.8
20260902223726 99 52 4.0 7.0 0.00 0.00 0.00 41 1012.1
20260902223225 99 98 3.0 7.0 0.00 0.00 0.00 42 1011.9
20260902222724 99 302 4.0 7.0 0.00 0.00 0.00 41 1012.1
20260902222219 100 112 0.0 3.0 0.00 0.00 0.00 44 1011.9
20260902221714 100 232 3.0 6.0 0.00 0.00 0.00 42 1011.9
20260902221212 100 82 2.0 3.0 0.00 0.00 0.00 43 1012.0
20260902220703 100 103 3.0 5.0 0.00 0.00 0.00 42 1011.9
20260902220203 100 43 1.0 3.0 0.00 0.00 0.00 40 1012.1
20260902215659 99 22 4.0 7.0 0.00 0.00 0.00 41 1012.0
20260902215154 99 9 3.0 7.0 0.00 0.00 0.00 41 1012.1
20260902214649 99 78 3.0 7.0 0.00 0.00 0.00 41 1012.0
20260902214148 100 76 3.0 9.0 0.00 0.00 0.00 44 1012.0
20260902213644 100 340 5.0 6.0 0.00 0.00 0.00 40 1012.1
20260902213143 98 74 3.0 5.0 0.00 0.00 0.00 43 1012.3
20260902212638 98 47 3.0 8.0 0.00 0.00 0.00 42 1012.2
20260902212135 98 85 4.0 6.0 0.00 0.00 0.00 42 1012.5
20260902211631 98 119 2.0 5.0 0.00 0.00 0.00 43 1012.3
20260902211126 99 72 3.0 8.0 0.00 0.00 0.00 42 1012.5
20260902210625 99 29 3.0 6.0 0.00 0.00 0.00 43 1012.7
20260902210121 98 137 1.0 5.0 0.00 0.00 0.00 43 1012.6
20260902205619 98 45 1.0 8.0 0.00 0.00 0.00 42 1012.6
20260902205115 98 102 1.0 6.0 0.00 0.00 0.00 43 1012.8
20260902204614 98 109 1.0 9.0 0.00 0.00 0.00 41 1012.8
20260902204109 98 54 2.0 5.0 0.00 0.00 0.00 43 1012.8
20260902203605 98 103 3.0 6.0 0.00 0.00 0.00 44 1012.8
20260902203104 99 126 4.0 7.0 0.00 0.00 0.00 43 1013.1
20260902202600 99 348 4.0 7.0 0.00 0.00 0.00 42 1013.2
20260902202056 99 63 6.0 10.0 0.00 0.00 0.00 43 1013.0
20260902201552 98 65 3.0 3.0 0.00 0.00 0.00 47 1013.1
20260902201051 98 127 2.0 6.0 0.00 0.00 0.00 46 1013.1
20260902200546 98 120 1.0 6.0 0.00 0.00 0.00 48 1013.2
20260902200043 97 37 3.0 5.0 0.00 0.00 0.00 44 1013.6
20260902195538 97 117 2.0 6.0 0.00 0.00 0.00 45 1013.4
20260902195036 98 85 3.0 6.0 0.00 0.00 0.00 45 1013.4
20260902194530 98 79 1.0 3.0 0.00 0.00 0.00 43 1013.5
20260902194026 99 150 1.0 7.0 0.00 0.00 0.00 41 1013.9
20260902193522 98 304 3.0 9.0 0.00 0.00 0.00 42 1013.7
20260902193021 98 102 1.0 5.0 0.00 0.00 0.00 44 1013.9
20260902192520 97 133 1.0 8.0 0.00 0.00 0.00 45 1014.0
20260902192019 97 67 4.0 8.0 0.00 0.00 0.00 45 1014.2
20260902191515 97 91 1.0 7.0 0.00 0.00 0.00 43 1014.1
20260902191009 98 101 2.0 6.0 0.00 0.00 0.00 44 1014.4
20260902190504 97 113 1.0 5.0 0.00 0.00 0.00 43 1014.5
20260902190000 97 26 3.0 6.0 0.00 0.00 0.00 42 1014.5
20260902185456 97 47 2.0 8.0 0.00 0.00 0.00 45 1014.4
20260902184951 97 79 4.0 6.0 0.00 0.00 0.00 44 1014.5
20260902184446 98 113 2.0 5.0 0.00 0.00 0.00 49 1014.6
20260902183941 97 115 2.0 6.0 0.00 0.00 0.00 49 1014.7
20260902183438 97 185 2.0 7.0 0.00 0.00 0.00 45 1014.7
20260902182933 97 124 3.0 5.0 0.00 0.00 0.00 45 1014.8
20260902182429 97 145 2.0 3.0 0.00 0.00 0.00 45 1014.9
20260902181925 96 287 1.0 5.0 0.00 0.00 0.00 45 1015.2
20260902181421 96 103 4.0 5.0 0.00 0.00 0.00 46 1015.2
20260902180915 95 80 2.0 7.0 0.00 0.00 0.00 46 1015.5
20260902180410 96 91 2.0 5.0 0.00 0.00 0.00 45 1015.4
20260902175906 96 72 1.0 7.0 0.00 0.00 0.00 47 1015.5
20260902175401 95 133 1.0 6.0 0.00 0.00 0.00 47 1015.9
20260902174856 95 127 2.0 3.0 0.00 0.00 0.00 48 1015.6
20260902174353 95 106 1.0 3.0 0.00 0.00 0.00 47 1015.8
20260902173848 95 87 0.0 2.0 0.00 0.00 0.00 47 1015.9
20260902173348 96 92 4.0 6.0 0.00 0.00 0.00 49 1016.0
20260902172842 95 98 0.0 2.0 0.00 0.00 0.00 48 1016.2
20260902172336 96 104 2.0 3.0 0.00 0.00 0.00 47 1016.1
20260902171832 95 16 1.0 5.0 0.00 0.00 0.00 47 1016.1
20260902171327 95 104 2.0 5.0 0.00 0.00 0.00 48 1016.3
20260902170823 96 140 2.0 2.0 0.00 0.00 0.00 48 1016.6
20260902170319 95 116 0.0 2.0 0.00 0.00 0.00 50 1016.4
20260902165814 95 139 3.0 5.0 0.00 0.00 0.00 49 1016.4